| time (UTC) | temp F | wind direction | speed MPH | gust MPH | rain 1hr in | rain 24hr in | rain mn in | humidity % | barometer mb |
| 20260505180508 | 82 | 209 | 7.0 | 18.0 | 0.00 | 0.00 | 0.00 | 72 | 1006.0 |
| 20260505180037 | 82 | 125 | 7.0 | 18.0 | 0.00 | 0.00 | 0.00 | 74 | 1005.9 |
| 20260505175509 | 82 | 307 | 5.0 | 14.0 | 0.00 | 0.00 | 0.00 | 75 | 1005.8 |
| 20260505175008 | 81 | 233 | 2.0 | 16.0 | 0.00 | 0.00 | 0.00 | 77 | 1005.9 |
| 20260505174545 | 80 | 252 | 7.0 | 16.0 | 0.00 | 0.00 | 0.00 | 75 | 1005.8 |
| 20260505174009 | 81 | 176 | 8.0 | 16.0 | 0.00 | 0.00 | 0.00 | 74 | 1005.8 |
| 20260505173508 | 81 | 188 | 4.0 | 13.0 | 0.00 | 0.00 | 0.00 | 75 | 1005.8 |
| 20260505173032 | 81 | 187 | 6.0 | 13.0 | 0.00 | 0.00 | 0.00 | 75 | 1005.9 |
| 20260505172511 | 81 | 146 | 4.0 | 14.0 | 0.00 | 0.00 | 0.00 | 76 | 1005.9 |
| 20260505172012 | 81 | 165 | 5.0 | 14.0 | 0.00 | 0.00 | 0.00 | 76 | 1005.8 |
| 20260505171526 | 80 | 237 | 2.0 | 12.0 | 0.00 | 0.00 | 0.00 | 78 | 1005.9 |
| 20260505171011 | 79 | 187 | 1.0 | 14.0 | 0.00 | 0.00 | 0.00 | 79 | 1005.8 |
| 20260505170505 | 79 | 214 | 6.0 | 14.0 | 0.00 | 0.00 | 0.00 | 78 | 1005.7 |
| 20260505170018 | 79 | 189 | 7.0 | 14.0 | 0.00 | 0.00 | 0.00 | 78 | 1005.7 |
| 20260505165509 | 79 | 173 | 6.0 | 14.0 | 0.00 | 0.00 | 0.00 | 78 | 1005.7 |
| 20260505165009 | 79 | 183 | 7.0 | 14.0 | 0.00 | 0.00 | 0.00 | 78 | 1005.7 |
| 20260505164522 | 79 | 146 | 6.0 | 15.0 | 0.00 | 0.00 | 0.00 | 78 | 1005.8 |
| 20260505164008 | 79 | 217 | 4.0 | 15.0 | 0.00 | 0.00 | 0.00 | 78 | 1005.8 |
| 20260505163510 | 78 | 199 | 5.0 | 13.0 | 0.00 | 0.00 | 0.00 | 78 | 1005.9 |
| 20260505163025 | 78 | 202 | 7.0 | 14.0 | 0.00 | 0.00 | 0.00 | 78 | 1006.0 |
| 20260505162508 | 78 | 205 | 5.0 | 14.0 | 0.00 | 0.00 | 0.00 | 79 | 1006.0 |
| 20260505162010 | 78 | 212 | 7.0 | 14.0 | 0.00 | 0.00 | 0.00 | 79 | 1006.0 |
| 20260505161528 | 77 | 196 | 6.0 | 20.0 | 0.00 | 0.00 | 0.00 | 80 | 1005.9 |
| 20260505161009 | 77 | 211 | 7.0 | 20.0 | 0.00 | 0.00 | 0.00 | 79 | 1005.9 |
| 20260505160508 | 77 | 156 | 9.0 | 20.0 | 0.00 | 0.00 | 0.00 | 79 | 1005.8 |
| 20260505153006 | 75 | 174 | 8.0 | 16.0 | 0.00 | 0.00 | 0.00 | 82 | 1005.7 |
| 20260505152505 | 75 | 230 | 6.0 | 16.0 | 0.00 | 0.00 | 0.00 | 82 | 1005.8 |
| 20260505152007 | 75 | 95 | 6.0 | 19.0 | 0.00 | 0.00 | 0.00 | 82 | 1005.9 |
| 20260505151512 | 75 | 185 | 8.0 | 19.0 | 0.00 | 0.00 | 0.00 | 82 | 1006.1 |
| 20260505151009 | 75 | 200 | 7.0 | 15.0 | 0.00 | 0.00 | 0.00 | 82 | 1006.1 |
| 20260505150510 | 75 | 198 | 6.0 | 15.0 | 0.00 | 0.00 | 0.00 | 82 | 1006.2 |
| 20260505140504 | 74 | 202 | 8.0 | 16.0 | 0.00 | 0.00 | 0.00 | 84 | 1005.5 |
| 20260505125004 | 70 | 221 | 6.0 | 16.0 | 0.00 | 0.00 | 0.00 | 89 | 1005.2 |
| 20260505124512 | 70 | 162 | 4.0 | 13.0 | 0.00 | 0.00 | 0.00 | 90 | 1005.1 |
| 20260505124008 | 70 | 216 | 5.0 | 13.0 | 0.00 | 0.00 | 0.00 | 90 | 1005.1 |
| 20260505123507 | 70 | 211 | 4.0 | 14.0 | 0.00 | 0.00 | 0.00 | 90 | 1005.1 |
| 20260505123017 | 70 | 196 | 3.0 | 14.0 | 0.00 | 0.00 | 0.00 | 90 | 1005.2 |
| 20260505122507 | 70 | 176 | 3.0 | 13.0 | 0.00 | 0.00 | 0.00 | 90 | 1005.0 |
| 20260505122008 | 69 | 195 | 4.0 | 15.0 | 0.00 | 0.00 | 0.00 | 90 | 1005.0 |
| 20260505121522 | 69 | 216 | 6.0 | 15.0 | 0.00 | 0.00 | 0.00 | 90 | 1004.8 |
| 20260505121009 | 69 | 250 | 5.0 | 12.0 | 0.00 | 0.00 | 0.00 | 90 | 1004.8 |
| 20260505120508 | 69 | 30 | 5.0 | 12.0 | 0.00 | 0.00 | 0.00 | 90 | 1004.8 |
| 20260505120031 | 69 | 213 | 5.0 | 14.0 | 0.00 | 0.00 | 0.00 | 90 | 1004.9 |
| 20260505115505 | 69 | 229 | 6.0 | 14.0 | 0.00 | 0.00 | 0.00 | 90 | 1004.9 |
| 20260505115005 | 69 | 228 | 6.0 | 13.0 | 0.00 | 0.00 | 0.00 | 90 | 1004.8 |
| 20260505114510 | 69 | 256 | 6.0 | 15.0 | 0.00 | 0.00 | 0.00 | 90 | 1004.8 |
| 20260505114007 | 69 | 246 | 6.0 | 15.0 | 0.00 | 0.00 | 0.00 | 90 | 1004.6 |
| 20260505113510 | 69 | 231 | 5.0 | 11.0 | 0.00 | 0.00 | 0.00 | 90 | 1004.8 |
| 20260505113019 | 69 | 165 | 3.0 | 14.0 | 0.00 | 0.00 | 0.00 | 90 | 1004.7 |
| 20260505112507 | 69 | 188 | 7.0 | 16.0 | 0.00 | 0.00 | 0.00 | 90 | 1004.6 |
| 20260505112008 | 69 | 263 | 8.0 | 16.0 | 0.00 | 0.00 | 0.00 | 90 | 1004.6 |
| 20260505111519 | 69 | 197 | 5.0 | 15.0 | 0.00 | 0.00 | 0.00 | 90 | 1004.6 |
| 20260505111010 | 69 | 157 | 5.0 | 15.0 | 0.00 | 0.00 | 0.00 | 90 | 1004.5 |
| 20260505110507 | 69 | 203 | 5.0 | 14.0 | 0.00 | 0.00 | 0.00 | 90 | 1004.5 |
| 20260505102009 | 69 | 210 | 7.0 | 15.0 | 0.00 | 0.00 | 0.00 | 89 | 1004.5 |
| 20260505101530 | 69 | 225 | 8.0 | 14.0 | 0.00 | 0.00 | 0.00 | 89 | 1004.6 |
| 20260505101006 | 69 | 211 | 5.0 | 14.0 | 0.00 | 0.00 | 0.00 | 89 | 1004.6 |
| 20260505100508 | 69 | 208 | 5.0 | 17.0 | 0.00 | 0.00 | 0.00 | 89 | 1004.5 |
| 20260505100023 | 70 | 136 | 5.0 | 17.0 | 0.00 | 0.00 | 0.00 | 89 | 1004.3 |
| 20260505095508 | 70 | 222 | 5.0 | 17.0 | 0.00 | 0.00 | 0.00 | 89 | 1004.5 |
| 20260505095014 | 70 | 275 | 6.0 | 17.0 | 0.00 | 0.00 | 0.00 | 89 | 1004.6 |
| 20260505094526 | 70 | 190 | 6.0 | 17.0 | 0.00 | 0.00 | 0.00 | 89 | 1004.6 |
| 20260505094008 | 70 | 212 | 5.0 | 17.0 | 0.00 | 0.00 | 0.00 | 89 | 1004.8 |
| 20260505093509 | 70 | 198 | 5.0 | 18.0 | 0.00 | 0.00 | 0.00 | 89 | 1004.8 |
| 20260505093035 | 70 | 233 | 6.0 | 18.0 | 0.00 | 0.00 | 0.00 | 89 | 1004.8 |
| 20260505092509 | 70 | 241 | 8.0 | 17.0 | 0.00 | 0.00 | 0.00 | 89 | 1004.9 |
| 20260505092004 | 70 | 191 | 7.0 | 14.0 | 0.00 | 0.00 | 0.00 | 89 | 1004.7 |
| 20260505091518 | 70 | 243 | 7.0 | 14.0 | 0.00 | 0.00 | 0.00 | 89 | 1004.8 |
| 20260505091007 | 70 | 243 | 6.0 | 14.0 | 0.00 | 0.00 | 0.00 | 89 | 1004.9 |
| 20260505090508 | 69 | 146 | 7.0 | 15.0 | 0.00 | 0.00 | 0.00 | 89 | 1004.7 |
| 20260505090023 | 69 | 221 | 5.0 | 15.0 | 0.00 | 0.00 | 0.00 | 89 | 1004.8 |
| 20260505085511 | 69 | 240 | 8.0 | 15.0 | 0.00 | 0.00 | 0.00 | 89 | 1004.8 |
| 20260505085009 | 69 | 188 | 7.0 | 16.0 | 0.00 | 0.00 | 0.00 | 89 | 1004.7 |
| 20260505084524 | 69 | 155 | 8.0 | 18.0 | 0.00 | 0.00 | 0.00 | 89 | 1004.8 |
| 20260505084008 | 69 | 209 | 5.0 | 18.0 | 0.00 | 0.00 | 0.00 | 89 | 1004.7 |
| 20260505083513 | 69 | 202 | 7.0 | 17.0 | 0.00 | 0.00 | 0.00 | 89 | 1004.6 |
| 20260505083027 | 69 | 237 | 7.0 | 16.0 | 0.00 | 0.00 | 0.00 | 89 | 1004.6 |
| 20260505082510 | 69 | 238 | 5.0 | 18.0 | 0.00 | 0.00 | 0.00 | 89 | 1005.0 |
| 20260505082009 | 69 | 212 | 8.0 | 18.0 | 0.00 | 0.00 | 0.00 | 89 | 1004.9 |
| 20260505081530 | 69 | 190 | 5.0 | 16.0 | 0.00 | 0.00 | 0.00 | 89 | 1005.0 |
| 20260505081005 | 69 | 186 | 8.0 | 16.0 | 0.00 | 0.00 | 0.00 | 89 | 1004.8 |
| 20260505080504 | 69 | 191 | 8.0 | 15.0 | 0.00 | 0.00 | 0.00 | 89 | 1004.9 |
| 20260505080015 | 69 | 214 | 6.0 | 15.0 | 0.00 | 0.00 | 0.00 | 89 | 1005.2 |
| 20260505075504 | 69 | 226 | 7.0 | 15.0 | 0.00 | 0.00 | 0.00 | 89 | 1005.3 |
| 20260505075008 | 69 | 217 | 6.0 | 16.0 | 0.00 | 0.00 | 0.00 | 89 | 1005.2 |
| 20260505074522 | 69 | 221 | 9.0 | 16.0 | 0.00 | 0.00 | 0.00 | 89 | 1005.2 |
| 20260505074009 | 69 | 218 | 4.0 | 16.0 | 0.00 | 0.00 | 0.00 | 89 | 1005.3 |
| 20260505073508 | 69 | 204 | 6.0 | 16.0 | 0.00 | 0.00 | 0.00 | 89 | 1005.4 |
| 20260505073027 | 69 | 223 | 6.0 | 17.0 | 0.00 | 0.00 | 0.00 | 88 | 1005.5 |
| 20260505072512 | 69 | 183 | 6.0 | 17.0 | 0.00 | 0.00 | 0.00 | 88 | 1005.5 |
| 20260505072008 | 69 | 226 | 5.0 | 15.0 | 0.00 | 0.00 | 0.00 | 88 | 1005.6 |
| 20260505071526 | 70 | 191 | 6.0 | 16.0 | 0.00 | 0.00 | 0.00 | 88 | 1005.8 |
| 20260505071008 | 70 | 232 | 6.0 | 16.0 | 0.00 | 0.00 | 0.00 | 87 | 1005.8 |
| 20260505070511 | 70 | 212 | 7.0 | 13.0 | 0.00 | 0.00 | 0.00 | 87 | 1005.9 |
| 20260505070026 | 70 | 203 | 6.0 | 18.0 | 0.00 | 0.00 | 0.00 | 87 | 1005.9 |
| 20260505065505 | 70 | 191 | 7.0 | 18.0 | 0.00 | 0.00 | 0.00 | 87 | 1006.0 |
| 20260505065008 | 70 | 218 | 6.0 | 14.0 | 0.00 | 0.00 | 0.00 | 86 | 1006.1 |
| 20260505064522 | 70 | 191 | 7.0 | 16.0 | 0.00 | 0.00 | 0.00 | 86 | 1006.2 |
| 20260505064001 | 70 | 206 | 5.0 | 17.0 | 0.00 | 0.00 | 0.00 | 86 | 1006.2 |
| 20260505063502 | 71 | 217 | 6.0 | 18.0 | 0.00 | 0.00 | 0.00 | 85 | 1006.1 |
| 20260505063006 | 71 | 204 | 9.0 | 18.0 | 0.00 | 0.00 | 0.00 | 85 | 1006.1 |
| 20260505062504 | 71 | 191 | 4.0 | 16.0 | 0.00 | 0.00 | 0.00 | 85 | 1006.2 |
| 20260505062009 | 71 | 134 | 6.0 | 16.0 | 0.00 | 0.00 | 0.00 | 85 | 1006.2 |
| 20260505061510 | 71 | 156 | 7.0 | 16.0 | 0.00 | 0.00 | 0.00 | 85 | 1006.1 |
| 20260505061006 | 71 | 183 | 5.0 | 13.0 | 0.00 | 0.00 | 0.00 | 84 | 1006.1 |
| 20260505060505 | 71 | 205 | 6.0 | 14.0 | 0.00 | 0.00 | 0.00 | 84 | 1006.2 |
| 20260505060015 | 71 | 168 | 6.0 | 18.0 | 0.00 | 0.00 | 0.00 | 84 | 1006.2 |
| 20260505055506 | 71 | 233 | 8.0 | 18.0 | 0.00 | 0.00 | 0.00 | 84 | 1006.2 |
| 20260505055009 | 71 | 100 | 5.0 | 17.0 | 0.00 | 0.00 | 0.00 | 83 | 1006.1 |
| 20260505054518 | 72 | 203 | 8.0 | 17.0 | 0.00 | 0.00 | 0.00 | 83 | 1006.1 |
| 20260505054011 | 72 | 225 | 5.0 | 14.0 | 0.00 | 0.00 | 0.00 | 83 | 1006.2 |
| 20260505053508 | 72 | 182 | 5.0 | 17.0 | 0.00 | 0.00 | 0.00 | 82 | 1006.2 |
| 20260505053020 | 72 | 219 | 5.0 | 17.0 | 0.00 | 0.00 | 0.00 | 82 | 1006.4 |
| 20260505052501 | 72 | 231 | 7.0 | 16.0 | 0.00 | 0.00 | 0.00 | 82 | 1006.5 |
| 20260505052004 | 72 | 191 | 7.0 | 17.0 | 0.00 | 0.00 | 0.00 | 82 | 1006.5 |
| 20260505051518 | 72 | 139 | 8.0 | 17.0 | 0.00 | 0.00 | 0.00 | 81 | 1006.6 |
| 20260505051005 | 72 | 266 | 4.0 | 19.0 | 0.00 | 0.00 | 0.00 | 81 | 1006.6 |
| 20260505050509 | 72 | 190 | 7.0 | 19.0 | 0.00 | 0.00 | 0.00 | 81 | 1006.7 |
| 20260505041527 | 72 | 160 | 5.0 | 15.0 | 0.00 | 0.00 | 0.00 | 79 | 1006.8 |
| 20260505041003 | 72 | 172 | 5.0 | 15.0 | 0.00 | 0.00 | 0.00 | 79 | 1006.9 |
| 20260505040506 | 72 | 174 | 6.0 | 12.0 | 0.00 | 0.00 | 0.00 | 79 | 1006.7 |
| 20260505040010 | 72 | 213 | 3.0 | 12.0 | 0.00 | 0.00 | 0.00 | 79 | 1006.8 |
| 20260505035505 | 72 | 165 | 4.0 | 13.0 | 0.00 | 0.00 | 0.00 | 79 | 1006.9 |
| 20260505035004 | 72 | 158 | 5.0 | 13.0 | 0.00 | 0.00 | 0.00 | 79 | 1006.8 |
| 20260505034515 | 72 | 116 | 5.0 | 11.0 | 0.00 | 0.00 | 0.00 | 80 | 1006.7 |
| 20260505034004 | 72 | 204 | 3.0 | 8.0 | 0.00 | 0.00 | 0.00 | 80 | 1006.7 |
| 20260505033508 | 72 | 195 | 1.0 | 9.0 | 0.00 | 0.00 | 0.00 | 80 | 1006.8 |
| 20260505033019 | 72 | 205 | 2.0 | 11.0 | 0.00 | 0.00 | 0.00 | 79 | 1006.8 |
| 20260505032507 | 72 | 212 | 3.0 | 11.0 | 0.00 | 0.00 | 0.00 | 79 | 1006.8 |
| 20260505032007 | 72 | 121 | 2.0 | 11.0 | 0.00 | 0.00 | 0.00 | 79 | 1006.8 |
| 20260505031523 | 72 | 244 | 2.0 | 10.0 | 0.00 | 0.00 | 0.00 | 80 | 1006.9 |
| 20260505031007 | 72 | 84 | 2.0 | 10.0 | 0.00 | 0.00 | 0.00 | 79 | 1007.0 |
| 20260505030508 | 72 | 155 | 2.0 | 7.0 | 0.00 | 0.00 | 0.00 | 79 | 1007.0 |
| 20260505030024 | 72 | 113 | 2.0 | 8.0 | 0.00 | 0.00 | 0.00 | 79 | 1007.1 |
| 20260505025505 | 72 | 185 | 2.0 | 8.0 | 0.00 | 0.00 | 0.00 | 79 | 1006.8 |
| 20260505025006 | 72 | 142 | 2.0 | 9.0 | 0.00 | 0.00 | 0.00 | 79 | 1006.9 |
| 20260505024512 | 73 | 162 | 3.0 | 9.0 | 0.00 | 0.00 | 0.00 | 79 | 1006.9 |
| 20260505024007 | 73 | 177 | 1.0 | 8.0 | 0.00 | 0.00 | 0.00 | 78 | 1006.9 |
| 20260505023504 | 73 | 180 | 2.0 | 8.0 | 0.00 | 0.00 | 0.00 | 78 | 1006.7 |
| 20260505023016 | 73 | 148 | 2.0 | 8.0 | 0.00 | 0.00 | 0.00 | 78 | 1006.7 |
| 20260505022506 | 73 | 30 | 3.0 | 8.0 | 0.00 | 0.00 | 0.00 | 78 | 1006.7 |
| 20260505022010 | 73 | 202 | 2.0 | 9.0 | 0.00 | 0.00 | 0.00 | 78 | 1006.7 |
| 20260505021518 | 73 | 167 | 1.0 | 9.0 | 0.00 | 0.00 | 0.00 | 77 | 1006.7 |
| 20260505021005 | 73 | 201 | 1.0 | 8.0 | 0.00 | 0.00 | 0.00 | 77 | 1006.7 |
| 20260505020505 | 73 | 93 | 2.0 | 6.0 | 0.00 | 0.00 | 0.00 | 77 | 1006.7 |
| 20260505020023 | 73 | 150 | 1.0 | 10.0 | 0.00 | 0.00 | 0.00 | 77 | 1006.5 |
| 20260505015512 | 73 | 244 | 2.0 | 10.0 | 0.00 | 0.00 | 0.00 | 76 | 1006.6 |
| 20260505015012 | 74 | 65 | 3.0 | 7.0 | 0.00 | 0.00 | 0.00 | 76 | 1006.6 |
| 20260505014508 | 74 | 157 | 2.0 | 11.0 | 0.00 | 0.00 | 0.00 | 76 | 1006.6 |
| 20260505014007 | 74 | 133 | 1.0 | 11.0 | 0.00 | 0.00 | 0.00 | 75 | 1006.6 |
| 20260505013503 | 74 | 95 | 4.0 | 11.0 | 0.00 | 0.00 | 0.00 | 75 | 1006.6 |
| 20260505013012 | 74 | 195 | 3.0 | 8.0 | 0.00 | 0.00 | 0.00 | 75 | 1006.5 |
| 20260505012506 | 74 | 91 | 1.0 | 13.0 | 0.00 | 0.00 | 0.00 | 74 | 1006.6 |
| 20260505012009 | 74 | 231 | 3.0 | 13.0 | 0.00 | 0.00 | 0.00 | 74 | 1006.6 |
| 20260505011517 | 74 | 186 | 3.0 | 12.0 | 0.00 | 0.00 | 0.00 | 74 | 1006.4 |
| 20260505011006 | 74 | 115 | 4.0 | 10.0 | 0.00 | 0.00 | 0.00 | 74 | 1006.5 |
| 20260505010508 | 75 | 219 | 2.0 | 11.0 | 0.00 | 0.00 | 0.00 | 74 | 1006.5 |
| 20260505010019 | 75 | 144 | 2.0 | 11.0 | 0.00 | 0.00 | 0.00 | 73 | 1006.5 |
| 20260505005508 | 75 | 215 | 4.0 | 11.0 | 0.00 | 0.00 | 0.00 | 73 | 1006.6 |
| 20260505005008 | 75 | 174 | 3.0 | 10.0 | 0.00 | 0.00 | 0.00 | 73 | 1006.6 |
| 20260505004526 | 75 | 201 | 2.0 | 13.0 | 0.00 | 0.00 | 0.00 | 72 | 1006.6 |
| 20260505004008 | 76 | 185 | 4.0 | 13.0 | 0.00 | 0.00 | 0.00 | 72 | 1006.6 |
| 20260505003511 | 76 | 155 | 5.0 | 11.0 | 0.00 | 0.00 | 0.00 | 72 | 1006.6 |
| 20260505003018 | 76 | 229 | 2.0 | 9.0 | 0.00 | 0.00 | 0.00 | 71 | 1006.8 |
| 20260505002508 | 76 | 134 | 4.0 | 12.0 | 0.00 | 0.00 | 0.00 | 71 | 1006.9 |
| 20260505002004 | 76 | 130 | 5.0 | 13.0 | 0.00 | 0.00 | 0.00 | 70 | 1006.8 |
| 20260505001514 | 76 | 224 | 5.0 | 13.0 | 0.00 | 0.00 | 0.00 | 70 | 1006.9 |
| 20260505001004 | 77 | 149 | 3.0 | 12.0 | 0.00 | 0.00 | 0.00 | 70 | 1007.0 |
| 20260505000507 | 77 | 219 | 4.0 | 16.0 | 0.00 | 0.00 | 0.00 | 69 | 1007.0 |
| 20260505000018 | 77 | 120 | 3.0 | 16.0 | 0.00 | 0.00 | 0.00 | 69 | 1007.0 |
| 20260504235505 | 77 | 203 | 5.0 | 11.0 | 0.00 | 0.00 | 0.00 | 69 | 1007.0 |
| 20260504235009 | 77 | 198 | 4.0 | 11.0 | 0.00 | 0.00 | 0.00 | 69 | 1007.0 |
| 20260504234523 | 78 | 143 | 4.0 | 16.0 | 0.00 | 0.00 | 0.00 | 68 | 1007.1 |
| 20260504234008 | 78 | 199 | 4.0 | 16.0 | 0.00 | 0.00 | 0.00 | 68 | 1007.1 |
| 20260504233508 | 78 | 155 | 6.0 | 14.0 | 0.00 | 0.00 | 0.00 | 68 | 1007.2 |
| 20260504233024 | 78 | 102 | 7.0 | 16.0 | 0.00 | 0.00 | 0.00 | 67 | 1007.2 |
| 20260504232509 | 78 | 135 | 5.0 | 17.0 | 0.00 | 0.00 | 0.00 | 67 | 1007.3 |
| 20260504232012 | 78 | 210 | 4.0 | 17.0 | 0.00 | 0.00 | 0.00 | 67 | 1007.2 |
| 20260504231513 | 78 | 264 | 6.0 | 16.0 | 0.00 | 0.00 | 0.00 | 67 | 1007.4 |
| 20260504231005 | 78 | 152 | 7.0 | 13.0 | 0.00 | 0.00 | 0.00 | 67 | 1007.3 |
| 20260504230504 | 78 | 105 | 3.0 | 13.0 | 0.00 | 0.00 | 0.00 | 67 | 1007.3 |
| 20260504230017 | 78 | 211 | 4.0 | 14.0 | 0.00 | 0.00 | 0.00 | 67 | 1007.4 |
| 20260504225514 | 78 | 198 | 5.0 | 16.0 | 0.00 | 0.00 | 0.00 | 66 | 1007.5 |
| 20260504225008 | 79 | 207 | 4.0 | 16.0 | 0.00 | 0.00 | 0.00 | 66 | 1007.5 |
| 20260504224521 | 79 | 241 | 6.0 | 15.0 | 0.00 | 0.00 | 0.00 | 65 | 1007.6 |
| 20260504224008 | 79 | 136 | 5.0 | 16.0 | 0.00 | 0.00 | 0.00 | 64 | 1007.7 |
| 20260504223508 | 80 | 161 | 6.0 | 17.0 | 0.00 | 0.00 | 0.00 | 64 | 1007.7 |
| 20260504223026 | 80 | 143 | 7.0 | 17.0 | 0.00 | 0.00 | 0.00 | 64 | 1007.7 |
| 20260504222508 | 80 | 205 | 8.0 | 17.0 | 0.00 | 0.00 | 0.00 | 64 | 1007.7 |
| 20260504222010 | 79 | 188 | 3.0 | 17.0 | 0.00 | 0.00 | 0.00 | 66 | 1007.6 |
| 20260504221528 | 79 | 100 | 7.0 | 18.0 | 0.00 | 0.00 | 0.00 | 66 | 1007.6 |
| 20260504221011 | 79 | 126 | 7.0 | 18.0 | 0.00 | 0.00 | 0.00 | 66 | 1007.6 |
| 20260504220513 | 79 | 202 | 6.0 | 18.0 | 0.00 | 0.00 | 0.00 | 65 | 1007.7 |
| 20260504220015 | 79 | 126 | 7.0 | 17.0 | 0.00 | 0.00 | 0.00 | 65 | 1007.7 |
| 20260504215507 | 80 | 156 | 6.0 | 14.0 | 0.00 | 0.00 | 0.00 | 65 | 1007.9 |
| 20260504215008 | 80 | 76 | 5.0 | 14.0 | 0.00 | 0.00 | 0.00 | 66 | 1007.9 |
| 20260504214518 | 79 | 116 | 4.0 | 18.0 | 0.00 | 0.00 | 0.00 | 66 | 1008.0 |
| 20260504214007 | 79 | 222 | 8.0 | 18.0 | 0.00 | 0.00 | 0.00 | 64 | 1008.0 |
| 20260504213507 | 80 | 203 | 7.0 | 18.0 | 0.00 | 0.00 | 0.00 | 64 | 1008.0 |
| 20260504213023 | 80 | 208 | 5.0 | 18.0 | 0.00 | 0.00 | 0.00 | 65 | 1008.1 |
| 20260504212508 | 80 | 188 | 6.0 | 16.0 | 0.00 | 0.00 | 0.00 | 64 | 1008.2 |
| 20260504212009 | 79 | 207 | 9.0 | 20.0 | 0.00 | 0.00 | 0.00 | 64 | 1008.3 |
| 20260504211506 | 80 | 58 | 8.0 | 20.0 | 0.00 | 0.00 | 0.00 | 64 | 1008.4 |
| 20260504211003 | 80 | 193 | 9.0 | 16.0 | 0.00 | 0.00 | 0.00 | 63 | 1008.6 |
| 20260504210506 | 80 | 149 | 5.0 | 16.0 | 0.00 | 0.00 | 0.00 | 64 | 1008.6 |
| 20260504210011 | 80 | 128 | 6.0 | 16.0 | 0.00 | 0.00 | 0.00 | 64 | 1008.9 |
| 20260504205509 | 81 | 207 | 7.0 | 15.0 | 0.00 | 0.00 | 0.00 | 62 | 1008.8 |
| 20260504205007 | 81 | 212 | 6.0 | 14.0 | 0.00 | 0.00 | 0.00 | 62 | 1009.1 |
| 20260504204516 | 81 | 259 | 5.0 | 14.0 | 0.00 | 0.00 | 0.00 | 63 | 1009.0 |
| 20260504204007 | 81 | 184 | 6.0 | 14.0 | 0.00 | 0.00 | 0.00 | 63 | 1009.1 |
| 20260504203512 | 81 | 221 | 6.0 | 14.0 | 0.00 | 0.00 | 0.00 | 62 | 1009.2 |
| 20260504203004 | 81 | 188 | 7.0 | 12.0 | 0.00 | 0.00 | 0.00 | 62 | 1009.5 |
| 20260504202504 | 81 | 145 | 4.0 | 14.0 | 0.00 | 0.00 | 0.00 | 62 | 1009.5 |
| 20260504202004 | 81 | 233 | 6.0 | 14.0 | 0.00 | 0.00 | 0.00 | 63 | 1009.6 |
| 20260504201507 | 81 | 198 | 6.0 | 16.0 | 0.00 | 0.00 | 0.00 | 63 | 1009.7 |
| 20260504201005 | 81 | 191 | 8.0 | 17.0 | 0.00 | 0.00 | 0.00 | 61 | 1009.7 |
| 20260504200503 | 81 | 97 | 3.0 | 17.0 | 0.00 | 0.00 | 0.00 | 62 | 1009.9 |
| 20260504200011 | 81 | 268 | 6.0 | 16.0 | 0.00 | 0.00 | 0.00 | 62 | 1010.1 |
| 20260504195507 | 80 | 143 | 4.0 | 16.0 | 0.00 | 0.00 | 0.00 | 64 | 1010.3 |
| 20260504195009 | 80 | 140 | 6.0 | 16.0 | 0.00 | 0.00 | 0.00 | 61 | 1010.4 |
| 20260504194512 | 81 | 234 | 6.0 | 16.0 | 0.00 | 0.00 | 0.00 | 63 | 1010.4 |
| 20260504194006 | 80 | 203 | 4.0 | 12.0 | 0.00 | 0.00 | 0.00 | 63 | 1010.3 |
| 20260504193509 | 80 | 113 | 5.0 | 15.0 | 0.00 | 0.00 | 0.00 | 64 | 1010.3 |
| 20260504193019 | 80 | 202 | 7.0 | 17.0 | 0.00 | 0.00 | 0.00 | 62 | 1010.4 |
| 20260504192509 | 80 | 139 | 5.0 | 17.0 | 0.00 | 0.00 | 0.00 | 63 | 1010.3 |
| 20260504192003 | 80 | 152 | 3.0 | 15.0 | 0.00 | 0.00 | 0.00 | 64 | 1010.4 |
| 20260504191520 | 80 | 251 | 6.0 | 15.0 | 0.00 | 0.00 | 0.00 | 62 | 1010.5 |
| 20260504191003 | 80 | 97 | 6.0 | 13.0 | 0.00 | 0.00 | 0.00 | 63 | 1010.8 |
| 20260504190505 | 79 | 220 | 3.0 | 16.0 | 0.00 | 0.00 | 0.00 | 63 | 1010.8 |
| 20260504190006 | 79 | 200 | 6.0 | 16.0 | 0.00 | 0.00 | 0.00 | 63 | 1010.9 |
| 20260504185507 | 79 | 150 | 7.0 | 19.0 | 0.00 | 0.00 | 0.00 | 63 | 1010.8 |
| 20260504185005 | 78 | 159 | 6.0 | 19.0 | 0.00 | 0.00 | 0.00 | 64 | 1010.9 |
| 20260504184510 | 78 | 274 | 8.0 | 16.0 | 0.00 | 0.00 | 0.00 | 63 | 1010.9 |
| 20260504184006 | 78 | 100 | 6.0 | 15.0 | 0.00 | 0.00 | 0.00 | 64 | 1010.9 |
| 20260504183506 | 78 | 182 | 4.0 | 15.0 | 0.00 | 0.00 | 0.00 | 64 | 1011.0 |
| 20260504183018 | 78 | 154 | 7.0 | 18.0 | 0.00 | 0.00 | 0.00 | 63 | 1011.2 |
| 20260504182514 | 78 | 210 | 7.0 | 18.0 | 0.00 | 0.00 | 0.00 | 62 | 1011.2 |
| 20260504182015 | 78 | 214 | 4.0 | 16.0 | 0.00 | 0.00 | 0.00 | 64 | 1011.4 |
| 20260504181524 | 77 | 181 | 6.0 | 15.0 | 0.00 | 0.00 | 0.00 | 64 | 1011.5 |
| 20260504181009 | 77 | 281 | 6.0 | 16.0 | 0.00 | 0.00 | 0.00 | 64 | 1011.5 |